When you browse on this site, cookies collect data to enhance your experience and personalize the content and advertising you see.
Visit our Privacy Policy to learn more. By continuing to use the site, you agree to this use of cookies and data.
  • In Hungary
  • List of Countries
  • For 7 days
  • Water Temperature
  • Satellite Maps
  • Weather Map
  • News
  • Weather Widgets
  • user-avatar
    Login

    Hourly Weather Kakrala

    Today, 19 July, Friday

    Time Temperature Precipitation Wind Pressure Humidity
    00:00 +34°C° 0 mm 2 mps 736 mmHg 57%
    01:00 +34°C° 0 mm 2 mps 735 mmHg 59%
    02:00 +34°C° 0 mm 2 mps 735 mmHg 61%
    03:00 +32°C° 0 mm 2 mps 735 mmHg 61%
    04:00 +32°C° 0 mm 2 mps 735 mmHg 61%
    05:00 +32°C° 0 mm 2 mps 735 mmHg 61%
    06:00 +34°C° 0 mm 2 mps 736 mmHg 56%
    07:00 +36°C° 0 mm 2 mps 736 mmHg 51%
    08:00 +37°C° 0 mm 2 mps 737 mmHg 46%
    09:00 +38°C° 0 mm 2 mps 737 mmHg 43%
    10:00 +39°C° 0 mm 1 mps 737 mmHg 39%
    11:00 +41°C° 0 mm 1 mps 737 mmHg 36%
    12:00 +41°C° 0 mm 1 mps 736 mmHg 36%
    13:00 +41°C° 0 mm 1 mps 736 mmHg 36%
    14:00 +40°C° 0 mm 1 mps 735 mmHg 36%
    15:00 +41°C° 0 mm 1 mps 735 mmHg 35%
    16:00 +41°C° 0 mm 1 mps 734 mmHg 35%
    17:00 +41°C° 0 mm 1 mps 734 mmHg 35%
    18:00 +40°C° 0 mm 1 mps 734 mmHg 37%
    19:00 +39°C° 0 mm 1 mps 734 mmHg 40%
    20:00 +37°C° 0 mm 1 mps 734 mmHg 42%
    21:00 +37°C° 0 mm 1 mps 734 mmHg 44%
    22:00 +37°C° 0 mm 1 mps 735 mmHg 45%
    23:00 +36°C° 0 mm 1 mps 735 mmHg 47%

    Tomorrow, 20 July, Saturday

    Time Temperature Precipitation Wind Pressure Humidity
    00:00 +36°C° 0 mm 1 mps 735 mmHg 48%
    01:00 +36°C° 0 mm 1 mps 734 mmHg 50%
    02:00 +35°C° 0 mm 1 mps 734 mmHg 51%
    03:00 +35°C° 0 mm 1 mps 735 mmHg 52%
    04:00 +35°C° 0 mm 1 mps 735 mmHg 53%
    05:00 +34°C° 0 mm 1 mps 735 mmHg 54%
    06:00 +35°C° 0 mm 1 mps 736 mmHg 51%
    07:00 +36°C° 0 mm 1 mps 736 mmHg 49%
    08:00 +37°C° 0 mm 1 mps 737 mmHg 46%
    09:00 +39°C° 0 mm 1 mps 737 mmHg 42%
    10:00 +40°C° 0 mm 1 mps 737 mmHg 38%
    11:00 +42°C° 0 mm 2 mps 737 mmHg 33%
    12:00 +42°C° 0 mm 1 mps 736 mmHg 32%
    13:00 +42°C° 0 mm 1 mps 736 mmHg 31%
    14:00 +43°C° 0 mm 1 mps 735 mmHg 30%
    15:00 +43°C° 0 mm 1 mps 735 mmHg 31%
    16:00 +42°C° 0 mm 1 mps 734 mmHg 31%
    17:00 +42°C° 0 mm 2 mps 734 mmHg 32%
    18:00 +42°C° 0 mm 2 mps 734 mmHg 34%
    19:00 +41°C° 0 mm 1 mps 734 mmHg 36%
    20:00 +40°C° 0 mm 1 mps 734 mmHg 39%
    21:00 +40°C° 0 mm 1 mps 734 mmHg 40%
    22:00 +39°C° 0 mm 1 mps 734 mmHg 41%
    23:00 +39°C° 0 mm 1 mps 734 mmHg 42%

    Day after tomorrow, 21 July, Sunday

    Time Temperature Precipitation Wind Pressure Humidity
    00:00 +37°C° 0 mm 1 mps 734 mmHg 44%
    01:00 +37°C° 0 mm 1 mps 734 mmHg 45%
    02:00 +37°C° 0 mm 1 mps 734 mmHg 46%
    03:00 +36°C° 0 mm 1 mps 734 mmHg 47%
    04:00 +36°C° 0 mm 1 mps 734 mmHg 47%
    05:00 +36°C° 0 mm 1 mps 734 mmHg 48%
    06:00 +38°C° 0.1 mm 2 mps 735 mmHg 46%
    07:00 +38°C° 0.1 mm 2 mps 735 mmHg 44%
    08:00 +39°C° 0.1 mm 3 mps 735 mmHg 42%
    09:00 +40°C° 0 mm 2 mps 735 mmHg 39%
    10:00 +42°C° 0 mm 2 mps 735 mmHg 35%
    11:00 +43°C° 0 mm 1 mps 735 mmHg 32%
    12:00 +43°C° 0 mm 2 mps 735 mmHg 31%
    13:00 +43°C° 0 mm 2 mps 734 mmHg 30%
    14:00 +44°C° 0 mm 3 mps 733 mmHg 30%
    15:00 +43°C° 0 mm 2 mps 733 mmHg 30%
    16:00 +43°C° 0 mm 2 mps 733 mmHg 31%
    17:00 +43°C° 0 mm 2 mps 732 mmHg 31%
    18:00 +42°C° 0 mm 1 mps 733 mmHg 33%
    19:00 +41°C° 0 mm 1 mps 733 mmHg 35%
    20:00 +38°C° 0 mm 0 mps 733 mmHg 37%
    21:00 +40°C° 0 mm 1 mps 733 mmHg 38%
    22:00 +40°C° 0 mm 1 mps 733 mmHg 39%
    23:00 +39°C° 0 mm 1 mps 733 mmHg 40%

    22 July, Monday

    Time Temperature Precipitation Wind Pressure Humidity
    00:00 +39°C° 0 mm 1 mps 733 mmHg 41%
    01:00 +39°C° 0 mm 1 mps 733 mmHg 42%
    02:00 +37°C° 0 mm 1 mps 732 mmHg 43%
    03:00 +37°C° 0 mm 1 mps 732 mmHg 45%
    04:00 +36°C° 0 mm 1 mps 732 mmHg 46%
    05:00 +37°C° 0 mm 2 mps 733 mmHg 47%
    06:00 +38°C° 0 mm 2 mps 733 mmHg 45%
    07:00 +39°C° 0 mm 2 mps 733 mmHg 42%
    08:00 +40°C° 0 mm 3 mps 734 mmHg 40%
    09:00 +41°C° 0 mm 2 mps 734 mmHg 36%
    10:00 +43°C° 0 mm 2 mps 733 mmHg 32%
    11:00 +45°C° 0 mm 2 mps 733 mmHg 28%
    12:00 +45°C° 0 mm 2 mps 733 mmHg 27%
    13:00 +46°C° 0 mm 2 mps 732 mmHg 26%
    14:00 +46°C° 0 mm 2 mps 731 mmHg 25%
    15:00 +46°C° 0 mm 2 mps 731 mmHg 26%
    16:00 +45°C° 0 mm 3 mps 731 mmHg 27%
    17:00 +45°C° 0 mm 4 mps 731 mmHg 29%
    18:00 +44°C° 0 mm 4 mps 731 mmHg 31%
    19:00 +43°C° 0 mm 3 mps 731 mmHg 34%
    20:00 +42°C° 0 mm 3 mps 731 mmHg 37%
    21:00 +42°C° 0 mm 3 mps 731 mmHg 38%
    22:00 +40°C° 0 mm 2 mps 732 mmHg 40%
    23:00 +40°C° 0 mm 2 mps 732 mmHg 41%

    23 July, Tuesday

    Time Temperature Precipitation Wind Pressure Humidity
    00:00 +39°C° 0 mm 3 mps 731 mmHg 44%
    01:00 +38°C° 0 mm 4 mps 731 mmHg 47%
    02:00 +38°C° 0 mm 4 mps 731 mmHg 49%
    03:00 +37°C° 0 mm 4 mps 731 mmHg 55%
    04:00 +36°C° 0 mm 4 mps 732 mmHg 61%
    05:00 +35°C° 0 mm 5 mps 732 mmHg 67%
    06:00 +35°C° 0 mm 5 mps 732 mmHg 66%
    07:00 +35°C° 0 mm 5 mps 733 mmHg 66%
    08:00 +35°C° 0 mm 6 mps 733 mmHg 65%
    09:00 +37°C° 0 mm 5 mps 733 mmHg 59%
    10:00 +38°C° 0 mm 4 mps 733 mmHg 53%
    11:00 +40°C° 0 mm 3 mps 733 mmHg 47%
    12:00 +41°C° 0 mm 2 mps 733 mmHg 43%
    13:00 +42°C° 0 mm 2 mps 732 mmHg 39%
    14:00 +43°C° 0 mm 1 mps 731 mmHg 34%
    15:00 +44°C° 0 mm 1 mps 731 mmHg 33%
    16:00 +45°C° 0 mm 2 mps 731 mmHg 32%
    17:00 +45°C° 0 mm 3 mps 731 mmHg 31%
    18:00 +42°C° 0 mm 5 mps 731 mmHg 41%
    19:00 +40°C° 0 mm 7 mps 731 mmHg 51%
    20:00 +38°C° 0 mm 9 mps 732 mmHg 62%
    21:00 +37°C° 0.1 mm 9 mps 732 mmHg 65%
    22:00 +35°C° 0.1 mm 9 mps 733 mmHg 69%
    23:00 +34°C° 0.1 mm 8 mps 733 mmHg 72%

    24 July, Wednesday

    Time Temperature Precipitation Wind Pressure Humidity
    00:00 +34°C° 0.1 mm 8 mps 733 mmHg 71%
    01:00 +34°C° 0.1 mm 7 mps 733 mmHg 70%
    02:00 +34°C° 0.1 mm 7 mps 733 mmHg 69%
    03:00 +33°C° 0 mm 6 mps 733 mmHg 71%
    04:00 +33°C° 0 mm 6 mps 733 mmHg 74%
    05:00 +32°C° 0 mm 6 mps 733 mmHg 76%
    06:00 +32°C° 0 mm 6 mps 734 mmHg 75%
    07:00 +33°C° 0 mm 6 mps 734 mmHg 74%
    08:00 +33°C° 0 mm 6 mps 734 mmHg 72%
    09:00 +33°C° 0.1 mm 6 mps 735 mmHg 70%
    10:00 +34°C° 0.1 mm 6 mps 735 mmHg 68%
    11:00 +34°C° 0.1 mm 6 mps 735 mmHg 66%
    12:00 +35°C° 0.2 mm 6 mps 735 mmHg 63%
    13:00 +36°C° 0.2 mm 5 mps 734 mmHg 59%
    14:00 +37°C° 0.2 mm 5 mps 734 mmHg 56%
    15:00 +36°C° 0.6 mm 6 mps 734 mmHg 60%
    16:00 +35°C° 0.6 mm 6 mps 733 mmHg 64%
    17:00 +34°C° 0.6 mm 7 mps 733 mmHg 68%
    18:00 +33°C° 0 mm 6 mps 733 mmHg 71%
    19:00 +32°C° 0 mm 6 mps 733 mmHg 74%
    20:00 +32°C° 0 mm 5 mps 733 mmHg 78%
    21:00 +30°C° 0.4 mm 4 mps 734 mmHg 79%
    22:00 +30°C° 0.4 mm 4 mps 734 mmHg 80%
    23:00 +30°C° 0.4 mm 4 mps 735 mmHg 81%
    Show more